This demonstration page uses our WeatherBlox Daily Observations layout. Learn more.

Left ArrowRight Arrow

Hourly Observations for May 20, 2020

Temp ( °F °C ) Dew Point ( °F °C ) Humidity (%) Winds ( mph kmh ) Pressure ( in mb ) Visibility ( mi km ) Precip ( " mm )
12:52 am 00:52 Cloudy 60 15.6 54 12.2 80 80 ESE 8 13 30.02 1017 10 16 0.00 0.00
1:52 am 01:52 Cloudy 60 15.6 54 12.2 80 80 SE 6 9 30.01 1016 10 16 0.00 0.00
2:52 am 02:52 Cloudy 59 15 55 12.8 87 87 SE 6 9 30.02 1017 10 16 0.00 0.00
3:52 am 03:52 Cloudy with Drizzle 58 14.4 56 13.3 93 93 ESE 5 7 30.03 1017 7 11 0.00 0.00
4:21 am 04:21 Cloudy 58 14.4 56 13.3 93 93 ENE 3 6 30.03 1017 7 11 0.00 0.00
4:52 am 04:52 Cloudy 58 14.4 56 13.3 93 93 ENE 3 6 30.02 1017 7 11 0.00 0.00
5:52 am 05:52 Cloudy with Mist and Fog 58 14.4 56 13.3 93 93 ENE 3 6 30.03 1017 6 10 0.00 0.00
6:52 am 06:52 Cloudy with Mist and Fog 58 14.4 56 13.3 93 93 E 7 11 30.03 1017 4 6 0.00 0.00
6:59 am 06:59 Cloudy with Mist and Fog 58 14.4 56 13.3 93 93 E 8 13 30.04 1017 4 6 0.00 0.00
7:20 am 07:20 Cloudy with Mist and Fog 58 14.4 56 13.3 93 93 E 9 15 30.03 1017 5 8 0.00 0.00
7:35 am 07:35 Cloudy with Mist and Fog 58 14.4 56 13.3 93 93 E 9 15 30.03 1017 5 8 0.00 0.00
7:48 am 07:48 Cloudy with Mist and Fog 57 14 55 13 94 94 E 8 13 30.04 1017 6 10 0.00 0.00
7:52 am 07:52 Cloudy with Mist and Fog 58 14.4 56 13.3 93 93 E 10 17 30.04 1017 6 10 0.00 0.00
8:15 am 08:15 Cloudy 59 15 55 12.8 87 87 E 8 13 30.04 1017 7 11 0.00 0.00
8:52 am 08:52 Cloudy 60 15.6 55 12.8 84 84 ESE 8 13 30.04 1017 8 13 0.00 0.00
9:52 am 09:52 Cloudy 61 16.1 54 12.2 78 78 ESE 7 11 30.05 1018 10 16 0.00 0.00
10:11 am 10:11 Cloudy 61 16.1 55 12.8 81 81 ESE 8 13 30.04 1017 10 16 0.00 0.00
10:52 am 10:52 Cloudy 62 16.7 55 12.8 78 78 E 9 15 30.04 1017 10 16 0.00 0.00
11:44 am 11:44 Cloudy 64 17.8 56 13.3 75 75 E 10 17 30.03 1017 10 16 0.00 0.00
11:52 am 11:52 Cloudy 64 17.8 55 12.8 73 73 ESE 12 19 30.04 1017 10 16 0.00 0.00
12:52 pm 12:52 Mostly Cloudy 64 17.8 56 13.3 75 75 SE 10 17 30.03 1017 10 16 0.00 0.00
1:25 pm 13:25 Mostly Cloudy 66 18.9 57 13.9 73 73 E 13 20 30.01 1016 10 16 0.00 0.00
1:52 pm 13:52 Mostly Cloudy 67 19.4 57 13.9 71 71 SE 14 22 30.01 1016 10 16 0.00 0.00
2:24 pm 14:24 Mostly Cloudy 67 19.4 57 13.9 71 71 SE 14 22 30.00 1016 10 16 0.00 0.00
2:52 pm 14:52 Mostly Cloudy 69 20.6 57 13.9 66 66 E 10 17 29.99 1016 10 16 0.00 0.00
3:44 pm 15:44 Cloudy 68 20 57 13.9 68 68 ESE 15 24 29.97 1015 10 16 0.00 0.00
3:52 pm 15:52 Cloudy 67 19.4 57 13.9 71 71 SE 10 17 29.98 1015 10 16 0.00 0.00
4:52 pm 16:52 Cloudy 68 20 57 13.9 68 68 E 15 24 29.97 1015 10 16 0.00 0.00
5:52 pm 17:52 Cloudy 68 20 57 13.9 68 68 SE 14 22 29.96 1015 10 16 0.00 0.00
6:52 pm 18:52 Cloudy 66 18.9 57 13.9 73 73 ESE 10 17 29.96 1014 10 16 0.00 0.00
7:52 pm 19:52 Cloudy 64 17.8 58 14.4 81 81 ESE 16 26 29.96 1015 10 16 0.00 0.00
8:52 pm 20:52 Cloudy 63 17.2 57 13.9 81 81 ESE 16 26 29.96 1015 10 16 0.00 0.00
9:52 pm 21:52 Cloudy 62 16.7 57 13.9 84 84 ESE 14 22 29.97 1015 10 16 0.00 0.00
10:13 pm 22:13 Cloudy 62 16.7 57 13.9 84 84 ESE 13 20 29.97 1015 10 16 0.00 0.00
10:52 pm 22:52 Cloudy 62 16.7 57 13.9 84 84 ESE 14 22 29.98 1015 10 16 0.00 0.00
11:19 pm 23:19 Cloudy 61 16.1 57 13.9 87 87 SE 10 17 29.97 1015 10 16 0.00 0.00
11:52 pm 23:52 Cloudy 61 16.1 57 13.9 87 87 SE 12 19 29.95 1014 10 16 0.00 0.00

Powered by AerisWeather